Location: eljas
(40.1958°N, 6.8661°W)
Time: 08:35:58
(UTC+01:00)

Amateur Radio Satellites - All Passes

Search period start: 18 December 2014 08:05
Search period end: 19 December 2014 08:05
Location: eljas, 40.1958°N, 6.8661°W

Satellite Date Start Highest point End Downlink Frequencies (MHz)
Time Altitude Azimuth
GONETS M04 18 Dec 08:28:49 08:37:01 42° 287° (WNW) 08:45:18
CUBESAT XI-V 18 Dec 08:30:48 08:34:16 20° 267° (W) 08:37:45 437.345
SO-50 18 Dec 08:33:43 08:38:27 49° 243° (WSW) 08:43:10 436.795
Cubesat XI-IV 18 Dec 08:34:28 08:39:27 42° 290° (WNW) 08:44:24 437.490
STRAND 1 18 Dec 09:07:46 09:09:35 12° 270° (W) 09:11:24 437.568
CUTE-I 18 Dec 09:09:24 09:13:23 22° 296° (WNW) 09:17:21 437.470
GOMX 1 18 Dec 09:18:30 09:20:22 12° 91° (E) 09:22:15 467.674
PHONESAT 2.4 18 Dec 09:43:06 09:46:44 74° 193° (SSW) 09:50:22 2401.200-2431.200
VERMONT LUNAR 18 Dec 09:43:47 09:47:16 58° 197° (SSW) 09:50:45 437.305
AAUSAT CUBESAT 2 18 Dec 09:48:08 09:51:03 18° 93° (E) 09:53:58 437.432
CANX-2 18 Dec 09:50:10 09:54:06 33° 97° (E) 09:57:59 2200.000
DOVE 4 18 Dec 09:56:15 10:00:00 23° 95° (E) 10:03:54 437.250
HO-68 18 Dec 09:58:56 10:05:47 47° 100° (E) 10:12:34 435.675
TIGRISAT 18 Dec 09:59:13 10:00:33 11° 61° (ENE) 10:01:52 435.000
BRITE-PL 18 Dec 10:12:24 10:16:59 62° 101° (E) 10:21:56 437.365/2234.400
COMPASS 1 18 Dec 10:20:20 10:24:29 48° 99° (E) 10:28:35 437.405
DX 1 18 Dec 10:20:46 10:23:21 15° 93° (E) 10:25:55 434.975-435.025
CUTE 1.7 + AOD 2 18 Dec 10:21:07 10:25:27 69° 101° (ESE) 10:29:44 437.475
SEEDS 18 Dec 10:21:42 10:25:58 60° 100° (E) 10:30:11 437.485
UNISAT 6 18 Dec 10:24:29 10:27:47 22° 66° (ENE) 10:31:10 437.425
POPSAT HIP 1 18 Dec 10:32:17 10:34:56 17° 65° (ENE) 10:37:35 437.405
CINEMA 3 18 Dec 10:43:09 10:47:36 41° 98° (E) 10:52:12 145.822/145.860
MaSat-1 18 Dec 10:44:14 10:46:37 82° 115° (ESE) 10:48:54 437.345
CUBEBUG 2 18 Dec 10:46:32 10:50:29 27° 96° (E) 10:54:29 437.445
Oscar 11 18 Dec 10:47:18 10:51:27 41° 98° (E) 10:55:34 145.826/435.025
YUBILEINY 18 Dec 10:49:50 10:54:57 17° 61° (ENE) 11:00:02 435.215
UKube-1 18 Dec 10:53:59 10:57:58 35° 98° (E) 11:01:55 .
GOMX 1 18 Dec 10:54:09 10:58:48 69° 285° (WNW) 11:03:47 467.674
DELFI C3 18 Dec 10:54:53 10:58:49 41° 98° (E) 11:02:42 145.870
ANTELSAT 18 Dec 10:55:05 10:59:13 45° 72° (ENE) 11:03:29 437.575/2403.000
CUSAT 1 18 Dec 10:57:54 11:01:02 40° 92° (E) 11:05:06 437.405
HUMSAT D 18 Dec 10:58:27 11:00:49 14° 92° (E) 11:03:12 437.325/437.525
50 SAT 18 Dec 11:00:12 11:01:20 11° 90° (E) 11:02:27 437.505
DUCHIFAT 1 18 Dec 11:00:31 11:04:16 33° 70° (ENE) 11:08:02 145.980
VELOX 1 18 Dec 11:02:52 11:05:22 15° 92° (E) 11:07:52 145.980
ZACube-1 18 Dec 11:09:53 11:14:01 34° 97° (E) 11:18:11 437.345
QB50P2 18 Dec 11:11:36 11:15:37 45° 72° (ENE) 11:19:39 145.880/145.840
BUGSAT 1 18 Dec 11:13:49 11:17:36 37° 72° (ENE) 11:21:22 437.445
POLYITAN 1 18 Dec 11:19:15 11:23:21 55° 74° (ENE) 11:27:30 437.675
PHONESAT 2.4 18 Dec 11:22:09 11:25:08 24° 209° (SSW) 11:28:07 2401.200-2431.200
VERMONT LUNAR 18 Dec 11:22:55 11:25:11 16° 212° (SSW) 11:27:26 437.305
AAUSAT CUBESAT 2 18 Dec 11:22:56 11:26:50 36° 289° (WNW) 11:30:43 437.432
NANOSAT C BR1 18 Dec 11:24:05 11:28:14 62° 75° (ENE) 11:32:24 145.865
CANX-2 18 Dec 11:26:33 11:29:49 21° 293° (WNW) 11:33:04 2200.000
UWE-3 18 Dec 11:30:28 11:35:02 70° 101° (ESE) 11:39:40 435.000/436.395/437.385
RS-15 18 Dec 11:31:24 11:36:59 16° 97° (E) 11:42:32 29.354- 29.394
TIGRISAT 18 Dec 11:32:22 11:36:39 70° 258° (WSW) 11:41:04 435.000
DOVE 4 18 Dec 11:33:30 11:37:48 37° 288° (WNW) 11:42:20 437.250
DANDE 18 Dec 11:35:28 11:38:38 80° 280° (W) 11:42:50 436.750
FUNcube-1 18 Dec 11:37:16 11:41:46 69° 101° (ESE) 11:46:19 145.935
QB50P1 18 Dec 11:37:54 11:42:07 90° 250° (WSW) 11:46:21 145.935-145.965
O/OREOS (USA 219) 18 Dec 11:38:40 11:42:30 27° 60° (ENE) 11:46:21 437.305
AISAT 18 Dec 11:42:58 11:47:11 42° 99° (E) 11:51:23 437.250
HO-68 18 Dec 11:47:00 11:53:15 34° 297° (WNW) 11:59:29 435.675
BRITE-PL 18 Dec 11:52:39 11:55:06 14° 295° (WNW) 11:57:38 437.365/2234.400
DX 1 18 Dec 11:55:40 11:59:49 45° 288° (WNW) 12:03:56 434.975-435.025
COMPASS 1 18 Dec 11:57:21 11:59:47 15° 295° (WNW) 12:02:13 437.405
SEEDS 18 Dec 11:59:26 12:01:16 13° 297° (WNW) 12:03:05 437.485
CUTE 1.7 + AOD 2 18 Dec 11:59:31 12:00:46 11° 297° (WNW) 12:02:01 437.475
CUBEBUG 1 18 Dec 12:00:09 12:03:38 23° 95° (E) 12:07:06 437.445
UNISAT 6 18 Dec 12:00:27 12:04:22 33° 263° (W) 12:08:23 437.425
POPSAT HIP 1 18 Dec 12:06:31 12:10:29 41° 261° (W) 12:14:30 437.405
CINEMA 3 18 Dec 12:21:04 12:24:33 21° 293° (WNW) 12:28:07 145.822/145.860
CUBEBUG 2 18 Dec 12:23:09 12:27:06 29° 290° (WNW) 12:31:09 437.445
Oscar 11 18 Dec 12:24:22 12:27:17 18° 294° (WNW) 12:30:13 145.826/435.025
ESTCUBE 1 18 Dec 12:29:49 12:34:14 54° 100° (E) 12:38:36 437.505/2401.250
UKube-1 18 Dec 12:30:41 12:33:53 21° 294° (WNW) 12:37:05 .
DELFI C3 18 Dec 12:31:12 12:33:44 16° 294° (WNW) 12:36:16 145.870
HUMSAT D 18 Dec 12:32:42 12:36:51 48° 287° (WNW) 12:41:02 437.325/437.525
50 SAT 18 Dec 12:32:49 12:36:54 58° 286° (WNW) 12:40:59 437.505
ANTELSAT 18 Dec 12:33:43 12:36:17 15° 269° (W) 12:38:54 437.575/2403.000
DUCHIFAT 1 18 Dec 12:37:07 12:40:12 20° 266° (W) 12:43:17 145.980
VELOX 1 18 Dec 12:37:57 12:42:13 48° 288° (WNW) 12:46:27 145.980
CUSAT 1 18 Dec 12:43:28 12:44:48 12° 300° (WNW) 12:46:15 437.405
YUBILEINY 18 Dec 12:44:26 12:53:11 83° 83° (E) 13:01:53 435.215
ZACube-1 18 Dec 12:46:41 12:50:11 23° 292° (WNW) 12:53:43 437.345
QB50P2 18 Dec 12:49:25 12:51:46 15° 268° (W) 12:54:07 145.880/145.840
BUGSAT 1 18 Dec 12:50:34 12:53:13 17° 266° (W) 12:55:53 437.445
POLYITAN 1 18 Dec 12:58:06 12:59:38 12° 269° (W) 13:01:11 437.675
NANOSAT C BR1 18 Dec 13:03:49 13:04:30 10° 270° (W) 13:05:11 145.865
UWE-3 18 Dec 13:09:07 13:11:01 12° 297° (WNW) 13:12:55 435.000/436.395/437.385
FUNcube-1 18 Dec 13:15:45 13:17:33 12° 297° (WNW) 13:19:22 145.935
O/OREOS (USA 219) 18 Dec 13:17:58 13:21:51 29° 256° (WSW) 13:25:44 437.305
SPROUT 18 Dec 13:19:12 13:23:15 40° 98° (E) 13:27:18 437.525
AISAT 18 Dec 13:20:29 13:23:29 18° 295° (WNW) 13:26:29 437.250
TISAT 1 18 Dec 13:25:08 13:29:15 50° 100° (E) 13:33:22 437.305
CUBEBUG 1 18 Dec 13:36:14 13:39:59 29° 291° (WNW) 13:43:44 437.445
RS-15 18 Dec 13:36:25 13:47:19 76° 117° (ESE) 13:58:14 29.354- 29.394
Gurwin Techsat 1B 18 Dec 13:44:21 13:46:17 12° 59° (ENE) 13:48:13 435.225
Oscar 19 18 Dec 13:52:27 13:57:29 60° 73° (ENE) 14:02:34 437.125/150
BEESAT 3 18 Dec 14:00:53 14:01:50 11° 107° (ESE) 14:02:48 437.485
ITAMSAT 1 18 Dec 14:02:45 14:07:08 29° 67° (ENE) 14:11:32 435.822/435.867
ESTCUBE 1 18 Dec 14:08:06 14:10:38 15° 296° (WNW) 14:13:10 437.505/2401.250
AO-7 18 Dec 14:25:32 14:29:04 13° 45° (NE) 14:32:35 29.400- 29.500
ITUPSAT 1 18 Dec 14:30:02 14:34:26 36° 98° (E) 14:38:47 437.325
SWISSCUBE 18 Dec 14:30:40 14:35:09 40° 98° (E) 14:39:36 437.505
M-CUBED/EXP-1 PRIME 18 Dec 14:34:54 14:37:25 15° 95° (E) 14:39:49 437.505
BEESAT 2 18 Dec 14:35:32 14:38:51 24° 112° (ESE) 14:42:14 435.950
YUBILEINY 18 Dec 14:43:15 14:48:49 19° 282° (WNW) 14:54:24 435.215
BEESAT 18 Dec 14:56:05 15:00:51 69° 102° (ESE) 15:05:35 436.000
SPROUT 18 Dec 14:56:09 14:59:02 18° 294° (WNW) 15:01:54 437.525
TISAT 1 18 Dec 15:02:26 15:04:39 14° 296° (WNW) 15:06:53 437.305
KKS-1 18 Dec 15:08:15 15:11:20 18° 93° (E) 15:14:25 437.445
STARS 18 Dec 15:11:29 15:13:28 13° 91° (E) 15:15:26 437.465
Gurwin Techsat 1B 18 Dec 15:20:07 15:25:26 89° 75° (ENE) 15:30:47 435.225
ISS 18 Dec 15:20:14 15:23:13 32° 136° (SE) 15:26:13 145.825
AIST 2 18 Dec 15:26:41 15:30:38 40° 116° (ESE) 15:34:39 435.215
PCSat 18 Dec 15:28:44 15:34:03 62° 115° (ESE) 15:39:24 145.827
Oscar 19 18 Dec 15:34:10 15:37:12 16° 269° (W) 15:40:16 437.125/150
HORYU 2 18 Dec 15:34:36 15:38:53 48° 72° (ENE) 15:43:12 437.375
BEESAT 3 18 Dec 15:35:21 15:39:25 67° 303° (WNW) 15:43:35 437.485
ITAMSAT 1 18 Dec 15:41:49 15:46:30 34° 263° (W) 15:51:12 435.822/435.867
AUBIESAT-1 18 Dec 15:44:44 15:49:11 85° 108° (ESE) 15:53:13 437.475
RS-15 18 Dec 15:51:02 16:00:44 35° 322° (NW) 16:10:36 29.354- 29.394
ITUPSAT 1 18 Dec 16:08:20 16:12:06 24° 294° (WNW) 16:15:52 437.325
M-CUBED/EXP-1 PRIME 18 Dec 16:08:28 16:12:47 47° 293° (WNW) 16:16:43 437.505
SWISSCUBE 18 Dec 16:09:10 16:12:44 21° 295° (WNW) 16:16:17 437.505
AO-7 18 Dec 16:12:01 16:20:06 59° 66° (ENE) 16:28:15 29.400- 29.500
BEESAT 2 18 Dec 16:13:15 16:16:58 31° 309° (NW) 16:20:44 435.950
JAS-2 18 Dec 16:23:15 16:29:10 26° 63° (ENE) 16:34:44 435.910
BEESAT 18 Dec 16:35:50 16:38:06 13° 299° (WNW) 16:40:21 436.000
GONETS M04 18 Dec 16:43:45 16:49:49 20° 63° (ENE) 16:55:49
KKS-1 18 Dec 16:43:57 16:48:08 40° 289° (WNW) 16:52:18 437.445
STARS 18 Dec 16:45:55 16:50:16 57° 287° (WNW) 16:54:37 437.465
ISS 18 Dec 16:56:50 16:59:48 30° 332° (NNW) 17:02:47 145.825
Gurwin Techsat 1B 18 Dec 17:05:31 17:06:04 10° 272° (W) 17:06:38 435.225
AIST 2 18 Dec 17:06:03 17:09:24 22° 313° (NW) 17:12:48 435.215
AIST 1 18 Dec 17:10:45 17:13:45 18° 87° (E) 17:16:45
HORYU 2 18 Dec 17:13:12 17:15:48 15° 268° (W) 17:18:26 437.375
PCSat 18 Dec 17:13:49 17:17:54 21° 313° (NW) 17:22:00 145.827
AUBIESAT-1 18 Dec 17:22:38 17:23:19 10° 306° (NW) 17:24:00 437.475
MOZHAYETS 4 18 Dec 17:34:38 17:38:13 22° 94° (E) 17:41:47
JAS-2 18 Dec 18:05:57 18:13:40 68° 258° (WSW) 18:20:50 435.910
AO-7 18 Dec 18:06:13 18:13:15 30° 264° (W) 18:20:22 29.400- 29.500
RS-15 18 Dec 18:10:38 18:17:49 19° 357° (N) 18:25:08 29.354- 29.394
Cubesat XI-IV 18 Dec 18:16:21 18:21:14 38° 69° (ENE) 18:26:07 437.490
ISS 18 Dec 18:35:44 18:37:12 12° 352° (N) 18:38:40 145.825
GONETS M04 18 Dec 18:38:59 18:47:47 85° 264° (W) 18:56:29
AIST 1 18 Dec 18:47:05 18:51:07 35° 283° (WNW) 18:55:09
CUTE-I 18 Dec 18:49:52 18:55:10 75° 74° (ENE) 19:00:30 437.470
MOZHAYETS 4 18 Dec 19:11:18 19:15:31 35° 290° (WNW) 19:19:41
PRISM 18 Dec 19:15:32 19:19:23 36° 98° (E) 19:23:12 437.425
STRAND 1 18 Dec 19:36:28 19:40:44 27° 95° (E) 19:44:59 437.568
Cubesat XI-IV 18 Dec 19:56:55 20:01:22 27° 265° (W) 20:05:50 437.490
JAS-2 18 Dec 19:57:41 19:59:36 11° 274° (W) 20:01:29 435.910
ISS 18 Dec 20:13:06 20:14:54 14° 13° (NNE) 20:16:41 145.825
MaSat-1 18 Dec 20:15:57 20:18:21 79° 246° (WSW) 20:20:55 437.345
RS-15 18 Dec 20:25:57 20:35:25 30° 32° (NNE) 20:45:09 29.354- 29.394
CUBESAT XI-V 18 Dec 20:26:47 20:31:24 77° 284° (WNW) 20:35:58 437.345
HO-68 18 Dec 20:27:12 20:33:29 34° 63° (ENE) 20:39:45 435.675
GOMX 1 18 Dec 20:28:30 20:29:11 10° 62° (ENE) 20:29:51 467.674
DANDE 18 Dec 20:33:04 20:37:48 17° 66° (ENE) 20:42:57 436.750
CUTE-I 18 Dec 20:33:27 20:35:47 13° 270° (W) 20:38:06 437.470
GONETS M04 18 Dec 20:38:33 20:43:10 16° 284° (WNW) 20:47:46
AAUSAT CUBESAT 2 18 Dec 20:40:25 20:42:14 13° 64° (ENE) 20:44:03 437.432
CANX-2 18 Dec 20:43:19 20:46:41 23° 68° (ENE) 20:50:05 2200.000
PRISM 18 Dec 20:51:47 20:54:39 18° 294° (WNW) 20:57:30 437.425
DOVE 4 18 Dec 21:02:54 21:05:48 19° 67° (ENE) 21:08:43 437.250
COMPASS 1 18 Dec 21:11:45 21:15:27 31° 70° (ENE) 21:19:12 437.405
SEEDS 18 Dec 21:13:39 21:17:35 39° 72° (ENE) 21:21:33 437.485
CUTE 1.7 + AOD 2 18 Dec 21:13:39 21:17:43 45° 73° (ENE) 21:21:49 437.475
STRAND 1 18 Dec 21:15:21 21:19:57 35° 291° (WNW) 21:24:31 437.568
DX 1 18 Dec 21:16:53 21:19:06 14° 63° (ENE) 21:21:18 434.975-435.025
BRITE-PL 18 Dec 21:23:38 21:27:48 64° 75° (ENE) 21:31:54 437.365/2234.400
CUSAT 1 18 Dec 21:34:45 21:42:05 52° 76° (ENE) 21:50:18 437.405
Oscar 11 18 Dec 21:41:51 21:45:38 30° 70° (ENE) 21:49:27 145.826/435.025
DELFI C3 18 Dec 21:43:25 21:46:48 25° 69° (ENE) 21:50:12 145.870
CINEMA 3 18 Dec 21:45:22 21:49:03 32° 70° (ENE) 21:52:49 145.822/145.860
CUBEBUG 2 18 Dec 21:45:31 21:48:35 20° 67° (ENE) 21:51:42 437.445
UKube-1 18 Dec 21:48:52 21:52:36 29° 69° (ENE) 21:56:20 .
ISS 18 Dec 21:48:59 21:52:09 43° 32° (NNE) 21:55:17 145.825
VELOX 1 18 Dec 22:01:10 22:03:24 14° 63° (ENE) 22:05:38 145.980
GOMX 1 18 Dec 22:02:38 22:06:46 65° 259° (W) 22:10:54 467.674
ZACube-1 18 Dec 22:06:18 22:09:42 25° 68° (ENE) 22:13:08 437.345
AAUSAT CUBESAT 2 18 Dec 22:13:15 22:17:23 57° 260° (W) 22:21:34 437.432
HO-68 18 Dec 22:14:05 22:20:56 47° 260° (W) 22:27:50 435.675
DANDE 18 Dec 22:14:30 22:22:01 82° 81° (E) 22:30:42 436.750
CANX-2 18 Dec 22:18:45 22:22:28 29° 264° (W) 22:26:14 2200.000
UWE-3 18 Dec 22:27:38 22:31:39 50° 73° (ENE) 22:35:46 435.000/436.395/437.385
FUNcube-1 18 Dec 22:33:04 22:37:03 48° 73° (ENE) 22:41:09 145.935
RS-15 18 Dec 22:38:15 22:49:36 85° 58° (ENE) 23:01:27 29.354- 29.394
DOVE 4 18 Dec 22:39:36 22:43:21 33° 263° (W) 22:47:09 437.250
AISAT 18 Dec 22:40:50 22:44:52 36° 70° (ENE) 22:48:55 437.250
SO-50 18 Dec 22:47:39 22:52:06 63° 119° (ESE) 22:56:43 436.795
COMPASS 1 18 Dec 22:48:00 22:51:12 21° 266° (W) 22:54:27 437.405
ANTELSAT 18 Dec 22:50:18 22:51:35 11° 89° (E) 22:52:51 437.575/2403.000
DX 1 18 Dec 22:50:36 22:54:52 55° 259° (W) 22:59:09 434.975-435.025
SEEDS 18 Dec 22:50:47 22:53:33 17° 268° (W) 22:56:21 437.485
CUTE 1.7 + AOD 2 18 Dec 22:51:28 22:53:52 15° 269° (W) 22:56:17 437.475
BEESAT 2 18 Dec 22:56:13 22:58:56 17° 44° (NE) 23:01:39 435.950
CUBEBUG 1 18 Dec 22:56:35 22:59:44 20° 66° (ENE) 23:02:53 437.445
NANOSAT C BR1 18 Dec 23:12:52 23:13:41 11° 90° (E) 23:14:31 145.865
CUSAT 1 18 Dec 23:18:13 23:24:59 36° 270° (W) 23:32:25 437.405
Oscar 11 18 Dec 23:18:24 23:21:49 23° 266° (W) 23:25:15 145.826/435.025
DELFI C3 18 Dec 23:18:36 23:21:59 25° 265° (W) 23:25:24 145.870
50 SAT 18 Dec 23:20:29 23:24:29 82° 77° (ENE) 23:28:32 437.505
CUBEBUG 2 18 Dec 23:21:21 23:25:05 32° 263° (W) 23:28:54 437.445
CINEMA 3 18 Dec 23:23:23 23:26:22 19° 267° (W) 23:29:24 145.822/145.860
HUMSAT D 18 Dec 23:24:16 23:28:22 72° 258° (WSW) 23:32:33 437.325/437.525
TIGRISAT 18 Dec 23:25:05 23:29:02 26° 95° (E) 23:32:58 435.000
UKube-1 18 Dec 23:25:12 23:28:43 24° 264° (W) 23:32:16 .
QB50P1 18 Dec 23:25:17 23:27:50 15° 92° (E) 23:30:23 145.935-145.965
ISS 18 Dec 23:26:03 23:28:31 20° 228° (SW) 23:30:58 145.825
ESTCUBE 1 18 Dec 23:29:01 23:33:22 47° 72° (ENE) 23:37:43 437.505/2401.250
VELOX 1 18 Dec 23:35:08 23:39:29 57° 259° (W) 23:43:51 145.980
ZACube-1 18 Dec 23:42:29 23:45:59 26° 265° (W) 23:49:33 437.345
AIST 2 18 Dec 23:49:22 23:52:58 25° 48° (NE) 23:56:31 435.215
YUBILEINY 18 Dec 23:51:44 23:57:13 19° 78° (ENE) 00:02:41 435.215
UNISAT 6 18 Dec 23:52:29 23:57:05 52° 100° (E) 00:01:41 437.425
POPSAT HIP 1 18 Dec 23:52:38 23:56:27 31° 97° (E) 00:00:15 437.405
BEESAT 3 18 Dec 23:55:39 23:59:48 62° 56° (NE) 00:03:54 437.485
DANDE 18 Dec 23:59:29 00:04:56 22° 274° (W) 00:10:54 436.750
UWE-3 19 Dec 00:06:44 00:08:32 13° 270° (W) 00:10:21 435.000/436.395/437.385
FUNcube-1 19 Dec 00:11:44 00:13:43 13° 269° (W) 00:15:43 145.935
SPROUT 19 Dec 00:13:18 00:17:00 29° 70° (ENE) 00:20:43 437.525
PCSat 19 Dec 00:17:16 00:22:28 44° 55° (NE) 00:27:37 145.827
TISAT 1 19 Dec 00:17:26 00:21:16 35° 71° (ENE) 00:25:07 437.305
AISAT 19 Dec 00:18:22 00:21:35 20° 266° (W) 00:24:50 437.250
DUCHIFAT 1 19 Dec 00:21:33 00:25:47 68° 102° (ESE) 00:30:01 145.980
ANTELSAT 19 Dec 00:24:08 00:28:50 73° 285° (WNW) 00:33:33 437.575/2403.000
SO-50 19 Dec 00:29:54 00:33:05 18° 318° (NW) 00:36:21 436.795
CUBEBUG 1 19 Dec 00:31:48 00:35:51 37° 262° (W) 00:39:54 437.445
BUGSAT 1 19 Dec 00:31:57 00:36:00 72° 102° (ESE) 00:40:03 437.445
QB50P2 19 Dec 00:33:23 00:37:40 86° 283° (WNW) 00:41:57 145.880/145.840
BEESAT 2 19 Dec 00:33:26 00:37:33 58° 242° (WSW) 00:41:37 435.950
POLYITAN 1 19 Dec 00:41:23 00:45:39 70° 285° (WNW) 00:49:55 437.675
NANOSAT C BR1 19 Dec 00:45:45 00:49:57 63° 285° (WNW) 00:54:09 145.865
RS-15 19 Dec 00:52:15 01:00:40 25° 258° (WSW) 01:09:22 29.354- 29.394
QB50P1 19 Dec 00:59:53 01:03:55 43° 288° (WNW) 01:07:57 145.935-145.965
AUBIESAT-1 19 Dec 01:00:29 01:02:51 14° 56° (NE) 01:05:13 437.475
TIGRISAT 19 Dec 01:01:37 01:05:44 31° 291° (WNW) 01:09:52 435.000
ESTCUBE 1 19 Dec 01:07:39 01:10:28 16° 268° (W) 01:13:17 437.505/2401.250
M-CUBED/EXP-1 PRIME 19 Dec 01:22:40 01:26:29 24° 61° (ENE) 01:30:22 437.505
AIST 2 19 Dec 01:27:45 01:31:38 34° 246° (WSW) 01:35:27 435.215
POPSAT HIP 1 19 Dec 01:28:54 01:32:10 22° 292° (WNW) 01:35:26 437.405
UNISAT 6 19 Dec 01:30:28 01:33:27 17° 296° (WNW) 01:36:27 437.425
BEESAT 3 19 Dec 01:35:57 01:37:26 12° 252° (WSW) 01:38:54 437.485
ITUPSAT 1 19 Dec 01:36:25 01:40:53 40° 70° (ENE) 01:45:21 437.325
SWISSCUBE 19 Dec 01:36:48 01:41:20 44° 71° (ENE) 01:45:54 437.505
YUBILEINY 19 Dec 01:44:03 01:52:49 85° 277° (W) 02:01:36 435.215
SPROUT 19 Dec 01:49:42 01:53:05 23° 265° (W) 01:56:29 437.525
O/OREOS (USA 219) 19 Dec 01:50:21 01:54:19 33° 104° (ESE) 01:58:18 437.305
TISAT 1 19 Dec 01:54:16 01:57:12 18° 266° (W) 02:00:08 437.305
DUCHIFAT 1 19 Dec 01:59:54 02:01:05 11° 298° (WNW) 02:02:16 145.980
PCSat 19 Dec 02:01:13 02:05:36 25° 253° (WSW) 02:09:57 145.827
BEESAT 19 Dec 02:02:00 02:06:47 74° 75° (ENE) 02:11:35 436.000
Oscar 19 19 Dec 02:05:20 02:09:20 22° 94° (E) 02:13:19 437.125/150
KKS-1 19 Dec 02:06:48 02:09:34 17° 64° (ENE) 02:12:20 437.445
STARS 19 Dec 02:09:25 02:10:52 12° 62° (ENE) 02:12:20 437.465
AUBIESAT-1 19 Dec 02:32:19 02:37:06 81° 253° (WSW) 02:42:02 437.475
M-CUBED/EXP-1 PRIME 19 Dec 02:56:39 03:01:11 42° 257° (WSW) 03:05:52 437.505
ITUPSAT 1 19 Dec 03:15:15 03:18:53 21° 266° (W) 03:22:32 437.325
SWISSCUBE 19 Dec 03:16:00 03:19:23 19° 267° (W) 03:22:47 437.505
O/OREOS (USA 219) 19 Dec 03:30:10 03:33:45 23° 301° (WNW) 03:37:21 437.305
Gurwin Techsat 1B 19 Dec 03:37:11 03:42:06 37° 97° (E) 03:46:59 435.225
KKS-1 19 Dec 03:41:34 03:45:49 47° 260° (W) 03:50:06 437.445
STARS 19 Dec 03:42:24 03:46:45 69° 258° (WSW) 03:51:09 437.465
BEESAT 19 Dec 03:43:50 03:45:08 11° 270° (W) 03:46:25 436.000
Oscar 19 19 Dec 03:43:55 03:48:50 43° 290° (WNW) 03:53:43 437.125/150
YUBILEINY 19 Dec 03:45:41 03:51:00 17° 298° (WNW) 03:56:20 435.215
ITAMSAT 1 19 Dec 03:54:34 03:59:46 88° 104° (ESE) 04:04:56 435.822/435.867
VERMONT LUNAR 19 Dec 04:11:35 04:13:35 15° 147° (SSE) 04:15:36 437.305
AO-7 19 Dec 04:15:53 04:21:18 18° 91° (E) 04:26:40 29.400- 29.500
PHONESAT 2.4 19 Dec 04:16:36 04:17:19 11° 144° (SE) 04:18:03 2401.200-2431.200
MOZHAYETS 4 19 Dec 04:36:32 04:39:58 21° 66° (ENE) 04:43:23
AIST 1 19 Dec 04:54:41 04:58:51 50° 79° (E) 05:02:59
HORYU 2 19 Dec 05:03:05 05:07:37 75° 285° (WNW) 05:12:07 437.375
Gurwin Techsat 1B 19 Dec 05:17:29 05:21:53 27° 294° (WNW) 05:26:17 435.225
JAS-2 19 Dec 05:19:28 05:22:22 14° 88° (E) 05:25:09 435.910
ITAMSAT 1 19 Dec 05:36:37 05:38:29 12° 301° (WNW) 05:40:21 435.822/435.867
GONETS M04 19 Dec 05:45:09 05:51:33 23° 80° (E) 05:57:56
VERMONT LUNAR 19 Dec 05:48:00 05:51:28 54° 161° (SSE) 05:54:55 437.305
PHONESAT 2.4 19 Dec 05:51:59 05:55:26 42° 158° (SSE) 05:58:53 2401.200-2431.200
CUBESAT XI-V 19 Dec 05:56:39 05:57:26 10° 61° (ENE) 05:58:13 437.345
PRISM 19 Dec 06:06:03 06:09:36 27° 69° (ENE) 06:13:09 437.425
AO-7 19 Dec 06:06:35 06:15:00 87° 289° (WNW) 06:23:22 29.400- 29.500
MOZHAYETS 4 19 Dec 06:12:33 06:16:54 40° 262° (W) 06:21:17
AIST 1 19 Dec 06:34:16 06:36:00 12° 276° (W) 06:37:44
Cubesat XI-IV 19 Dec 06:35:27 06:38:28 15° 91° (E) 06:41:29 437.490
STRAND 1 19 Dec 06:51:45 06:56:25 37° 69° (ENE) 07:01:05 437.568
JAS-2 19 Dec 07:02:29 07:08:11 65° 287° (WNW) 07:13:23 435.910
CUTE-I 19 Dec 07:08:00 07:12:41 31° 96° (E) 07:17:21 437.470
SO-50 19 Dec 07:19:36 07:24:22 50° 53° (NE) 07:29:09 436.795
VERMONT LUNAR 19 Dec 07:26:12 07:29:45 83° 358° (N) 07:33:18 437.305
CUBESAT XI-V 19 Dec 07:29:28 07:34:10 85° 257° (WSW) 07:38:51 437.345
PHONESAT 2.4 19 Dec 07:30:23 07:34:01 87° 355° (N) 07:37:40 2401.200-2431.200
GONETS M04 19 Dec 07:38:35 07:47:24 74° 279° (W) 07:56:17
PRISM 19 Dec 07:41:33 07:45:03 25° 264° (W) 07:48:35 437.425
